EW2077 Weather Reports


Display with metric or nautical units.
time (UTC)temp
F
wind
direction
speed
MPH
gust
MPH
rain 1hr
in
rain 24hr
in
rain mn
in
humidity
%
barometer
mb
20260901194517 75 211 0.0 4.0 0.00 0.05 0.02 39 1034.6
20260901193017 75 190 0.0 3.0 0.00 0.05 0.02 36 1034.8
20260901191516 77 160 0.0 5.0 0.00 0.05 0.02 35 1034.7
20260901190016 77 273 0.0 7.0 0.00 0.05 0.02 30 1034.8
20260901184509 77 340 0.0 4.0 0.00 0.05 0.02 31 1035.1
20260901183011 75 238 0.0 4.0 0.00 0.05 0.02 30 1035.3
20260901181506 75 13 0.0 4.0 0.00 0.05 0.02 31 1035.5
20260901180002 75 306 2.0 7.0 0.00 0.05 0.02 31 1035.6
20260901174621 75 351 0.0 5.0 0.00 0.05 0.02 32 1035.8
20260901173057 73 5 0.0 5.0 0.00 0.05 0.02 35 1036.0
20260901171558 72 261 0.0 3.0 0.00 0.05 0.02 38 1036.0
20260901170053 71 237 0.0 0.0 0.00 0.05 0.02 42 1036.0
20260901164550 69 319 0.0 0.0 0.00 0.05 0.02 46 1036.0
20260901163044 66 326 0.0 0.0 0.00 0.05 0.02 54 1035.9
20260901161540 63 326 0.0 0.0 0.00 0.05 0.02 81 1035.9
20260901160034 59 326 0.0 0.0 0.00 0.05 0.02 87 1036.1
20260901154532 58 326 0.0 0.0 0.00 0.05 0.02 90 1036.1
20260901153033 56 344 0.0 0.0 0.00 0.05 0.02 93 1036.3
20260901151524 55 344 0.0 0.0 0.00 0.05 0.02 94 1036.3
20260901150028 54 344 0.0 0.0 0.00 0.05 0.02 94 1036.2
20260901144520 53 344 0.0 0.0 0.00 0.05 0.02 93 1036.4
20260901143018 52 344 0.0 0.0 0.00 0.05 0.02 93 1036.3
20260901141517 52 344 0.0 0.0 0.00 0.05 0.02 93 1036.2
20260901140023 51 344 0.0 0.0 0.00 0.05 0.02 93 1036.2
20260901134516 51 344 0.0 0.0 0.00 0.05 0.02 93 1036.1
20260901133015 51 344 0.0 0.0 0.00 0.05 0.02 93 1035.9
20260901131514 51 344 0.0 0.0 0.00 0.05 0.02 93 1035.5
20260901130013 50 344 0.0 0.0 0.00 0.05 0.02 93 1035.3
20260901124512 50 344 0.0 0.0 0.00 0.05 0.02 93 1035.0
20260901123012 50 344 0.0 0.0 0.00 0.05 0.02 93 1034.7
20260901121512 50 344 0.0 0.0 0.00 0.05 0.02 92 1034.4
20260901120009 50 344 0.0 0.0 0.00 0.05 0.02 92 1034.3
20260901114507 51 344 0.0 0.0 0.00 0.05 0.02 92 1034.5
20260901113007 50 344 0.0 0.0 0.00 0.05 0.02 92 1034.4
20260901111506 51 344 0.0 0.0 0.00 0.05 0.02 92 1034.4
20260901110004 51 344 0.0 0.0 0.00 0.05 0.02 92 1034.5
20260901104505 51 344 0.0 0.0 0.00 0.05 0.02 92 1034.7
20260901103106 51 344 0.0 0.0 0.00 0.05 0.02 92 1034.8
20260901101559 52 344 0.0 0.0 0.00 0.05 0.02 92 1034.8
20260901100054 52 344 0.0 0.0 0.00 0.05 0.02 92 1035.1
20260901094553 52 344 0.0 0.0 0.00 0.05 0.02 92 1035.4
20260901093053 52 344 0.0 0.0 0.00 0.05 0.02 92 1035.4
20260901091559 53 344 0.0 0.0 0.00 0.05 0.02 92 1035.5
20260901090049 53 344 0.0 0.0 0.00 0.05 0.02 92 1035.5
20260901084545 53 344 0.0 0.0 0.00 0.06 0.02 92 1035.6
20260901083045 53 344 0.0 0.0 0.00 0.06 0.02 92 1035.6
20260901081543 53 344 0.0 0.0 0.00 0.06 0.02 92 1035.9
20260901080042 53 344 0.0 0.0 0.00 0.06 0.02 91 1035.8
20260901074547 53 344 0.0 0.0 0.00 0.06 0.02 92 1036.1
20260901073038 53 344 0.0 0.0 0.00 0.06 0.02 91 1036.3
20260901071537 53 344 0.0 0.0 0.02 0.06 0.02 91 1036.4
20260901070035 53 344 0.0 0.0 0.02 0.06 0.02 91 1036.2
20260901064535 53 344 0.0 0.0 0.02 0.06 0.02 91 1036.4
20260901063034 53 344 0.0 0.0 0.02 0.06 0.02 90 1036.8
20260901061529 53 344 0.0 0.0 0.00 0.04 0.00 90 1036.0
20260901060027 53 344 0.0 0.0 0.00 0.04 0.00 90 1036.0
20260901054527 54 344 0.0 0.0 0.00 0.04 0.04 90 1036.2
20260901053027 54 344 0.0 0.0 0.00 0.04 0.04 90 1035.9
20260901051526 54 344 0.0 0.0 0.00 0.04 0.04 90 1035.6
20260901050025 54 344 0.0 0.0 0.00 0.04 0.04 90 1036.0
20260901044528 54 344 0.0 0.0 0.00 0.04 0.04 89 1035.9
20260901043027 54 344 0.0 0.0 0.00 0.04 0.04 89 1036.0
20260901041523 55 344 0.0 0.0 0.00 0.04 0.04 89 1035.9
20260901040023 55 344 0.0 0.0 0.00 0.04 0.04 89 1035.9
20260901034522 56 344 0.0 0.0 0.00 0.04 0.04 89 1035.9
20260901033026 56 344 0.0 0.0 0.00 0.04 0.04 89 1035.8
20260901031530 56 344 0.0 0.0 0.02 0.04 0.04 89 1035.4
20260901030019 56 344 0.0 0.0 0.03 0.04 0.04 88 1035.8
20260901024518 57 344 0.0 0.0 0.03 0.04 0.04 86 1036.0
20260901023025 58 344 0.0 0.0 0.03 0.04 0.04 84 1036.5
20260901021519 60 360 0.0 3.0 0.01 0.02 0.02 78 1036.6
20260901020026 62 153 0.0 0.0 0.00 0.01 0.01 72 1036.2
20260901014516 63 150 0.0 0.0 0.00 0.01 0.01 69 1035.6
20260901013025 65 150 0.0 0.0 0.00 0.01 0.01 67 1035.4
20260901011515 66 150 0.0 0.0 0.00 0.01 0.01 61 1035.1
20260901010013 67 150 0.0 3.0 0.00 0.01 0.01 54 1034.5
20260901004509 67 119 0.0 5.0 0.00 0.01 0.01 52 1034.3
20260901003009 69 155 1.0 7.0 0.00 0.01 0.01 50 1034.3
20260901001512 70 217 0.0 0.0 0.00 0.01 0.01 44 1034.4
20260901000009 71 217 0.0 0.0 0.00 0.01 0.01 43 1034.5
20260831234507 72 213 0.0 0.0 0.00 0.01 0.01 41 1034.4
20260831233007 72 213 0.0 3.0 0.00 0.01 0.01 42 1034.3
20260831231504 72 211 0.0 2.0 0.00 0.01 0.01 40 1034.4
20260831230006 73 213 0.0 4.0 0.00 0.01 0.01 42 1034.4
20260831224503 73 219 1.0 4.0 0.00 0.01 0.01 39 1034.6
20260831223100 73 216 0.0 0.0 0.00 0.01 0.01 40 1034.8
20260831221604 74 215 0.0 3.0 0.00 0.01 0.01 42 1034.7
20260831220055 73 215 0.0 4.0 0.00 0.01 0.01 42 1034.9
20260831214559 73 217 0.0 3.0 0.00 0.02 0.01 43 1035.1
20260831213056 74 217 0.0 4.0 0.00 0.02 0.01 42 1035.2
20260831211553 75 219 0.0 4.0 0.00 0.02 0.01 42 1035.5
20260831210048 75 221 0.0 3.0 0.00 0.02 0.01 38 1035.8
20260831204554 75 221 1.0 4.0 0.00 0.03 0.01 38 1035.8
20260831203059 75 221 0.0 2.0 0.00 0.03 0.01 40 1036.0
20260831201546 75 222 0.0 4.0 0.00 0.03 0.01 40 1036.2
20260831200042 74 219 2.0 6.0 0.00 0.03 0.01 43 1036.4